7 * 24
多渠道服务支持
STARLINK-5473是美国太空探索技术公司(SpaceX)旗下星链(Starlink)星座的一颗低轨互联网通信卫星,于2023年2月17日发射入轨,属于星链第二代迷你卫星(Starlink v2.0 mini)。 它由SpaceX制造运营,运行在近地轨道,旨在为全球偏远地区提供低延迟高速宽带互联网接入,是SpaceX构建全球覆盖巨型低轨卫星星座计划中的一员,目前仍在轨正常工作,卫星搭载氪离子霍尔推进器用于轨道调整和维持。
美国
(US)
| 数据来源 | 国际轨道数据 |
| 星历时间: | 2026-09-12T04:59:37+0800 16小时前 查看轨道信息 |
| 半长轴: | 6950.186km |
| 偏心率: | 0.0003157 |
| 轨道倾角: | 70.000° |
| 近地点辐角 | 266.914° |
| 升交点赤经 | 55.002° |
| 平近点角 | 93.166° |
| 近地点: | 569.854km |
| 远地点: | 574.244km |
| 周期: | 96.107分钟 |
| 每日圈数: | 14.983324 |